Regional Weather Roundup
Issued by NWS

Home | Current Version | Previous Version | Graphics & Text | Print | Product List | Glossary On
Versions: 1 2 3 4 5 6 7 8 9 10 11 12 13 14 15 16 17 18 19 20 21 22 23 24 25 26 27 28 29 30 31 32 33 34 35 36 37 38 39 40 41 42 43 44 45 46 47 48 49 50
000
ASUS45 KBOU 041807
RWRCO

WEATHER ROUNDUP FOR COLORADO
NATIONAL WEATHER SERVICE DENVER/BOULDER CO
1200 PM MDT FRI SEP 04 2015

NOTE: "FAIR" INDICATES FEW OR NO CLOUDS BELOW 12000 FEET WITH NO
SIGNIFICANT WEATHER AND/OR OBSTRUCTIONS TO VISIBILITY.

COZ001>005-013-030-031-041900-
...NORTHWEST COLORADO...

CITY           SKY/WX    TMP DP  RH WIND       PRES   REMARKS
CRAIG          PTSUNNY   75  46  35 N5        30.07F
HAYDEN         PTSUNNY   70  43  37 E5        30.11S
MEEKER         PTSUNNY   71  46  40 S12       30.11S
MOUNT WERNER   NOT AVBL
STEAMBOAT SPGS PTSUNNY   67  47  47 SW6       30.12F
WALDEN         MOSUNNY   70  34  26 S12       30.20F
$$

COZ006>008-011-041900-
...WEST CENTRAL VALLEYS...

CITY           SKY/WX    TMP DP  RH WIND       PRES   REMARKS
GRAND JUNCTION PTSUNNY   76  49  38 S17       30.03F
MONTROSE       CLOUDY    69  53  56 N6        30.13S
EAGLE          NOT AVBL
RIFLE          CLOUDY    65  51  60 E7        30.09F
DELTA          RAIN      74  50  42 NE6       30.09F
NUCLA          CLOUDY    68  50  52 W3        30.16F
$$

COZ017>023-064>068-041900-
...SOUTHWEST COLORADO...

CITY           SKY/WX    TMP DP  RH WIND       PRES   REMARKS
DURANGO        CLOUDY    67  47  48 E7        30.20F
CORTEZ         CLOUDY    72  50  45 S10       30.13F
PAGOSA SPRINGS LGT RAIN  60  48  65 CALM      30.28F
TELLURIDE      CLOUDY    57  47  68 SE6       30.33S
WOLF CREEK PAS NOT AVBL
$$

COZ009-010-012-014-032>034-037-058>063-041900-
...CENTRAL COLORADO...

CITY           SKY/WX    TMP DP  RH WIND       PRES   REMARKS
ASPEN          LGT RAIN  58  48  69 NE6       30.23R
BUENA VISTA    CLOUDY    62  44  52 SW3       30.25F
COPPER MTN     CLOUDY    54  34  47 S6        30.51S
BERTHOUD PASS  CLOUDY    45  32  61 E5G18     30.56S
COTTONWOOD PAS CLOUDY    57  43  58 CALM      30.37S
GUNNISON       PTSUNNY   57  48  72 N7        30.27F
KREMMLING      CLOUDY    52  45  76 CALM      30.24F
LEADVILLE      LGT RAIN  52  39  61 CALM      30.36R
MONARCH PASS   CLOUDY    50  39  66 S5        30.61S
SALIDA         CLOUDY    68  45  43 N3        30.27F
SUNLIGHT       CLOUDY    52  46  82 CALM      30.44S
WILKERSON PASS CLOUDY    55  34  44 CALM      30.50S
$$

COZ069>075-041900-
...SAN LUIS VALLEY/SANGRE DE CRISTO MOUNTAINS...

CITY           SKY/WX    TMP DP  RH WIND       PRES   REMARKS
ALAMOSA        PTSUNNY   65  46  50 VRB3      30.23F
LA VETA PASS   PTSUNNY   63  41  45 S6        30.41F
SAGUACHE       PTSUNNY   64  48  55 S8        30.27F
$$

COZ035-036-038>040-041900-
...NORTHERN COLORADO FRONT RANGE...

CITY           SKY/WX    TMP DP  RH WIND       PRES   REMARKS
DENVER INTL AP PTSUNNY   84  41  21 SE14      30.02F
DMNS CITY PARK   N/A     83  44  25 SE12      30.01F
AURORA         PTSUNNY   84  40  21 S7G21     30.05F
FRONT RANGE AP PTSUNNY   84  39  20 SE14G22   30.04F
ERIE MUNI ARPT MOSUNNY   83  39  20 E7        30.00F
BOULDER MUN AP MOSUNNY   79  50  36 CALM      30.02F
CENTENNIAL     PTSUNNY   80  42  25 VRB7      30.06S
BROOMFIELD     PTSUNNY   82  39  21 E9G16     30.05F
FORT COLLINS   SUNNY     81  52  36 SE7       30.01F
LONGMONT       SUNNY     84  48  28 SE3       30.02F
$$

COZ041-046-047-076>085-087-088-041900-
...PIKES PEAK/PALMER DIVIDE AND SOUTHERN FOOTHILLS...

CITY           SKY/WX    TMP DP  RH WIND       PRES   REMARKS
COLO. SPRINGS  PTSUNNY   74  49  41 S7        30.12R
A. F. ACADEMY  CLOUDY    74  46  35 S10       30.12S
ELLICOTT       PTSUNNY  N/A N/A N/A SW13      30.09F
FALCON         PTSUNNY   74  40  29 S6        30.16
FORT CARSON    CLOUDY    74  51  44 S3        30.08F
LIMON          SUNNY     84  42  22 E9        30.04F
MONUMENT HILL  MOSUNNY   73  41  31 S8        30.16S
TRINIDAD       PTSUNNY   83  41  22 CALM      30.07F
$$

COZ042>045-048>051-090-091-041900-
...NORTHEAST COLORADO...

CITY           SKY/WX    TMP DP  RH WIND       PRES   REMARKS
GREELEY ARPT   SUNNY     82  54  36 S5        30.00F
AKRON          MOSUNNY   87  42  20 VRB3      29.99F
BURLINGTON     SUNNY     89  45  21 VRB3      29.97F
WRAY           CLOUDY    90  49  24 W6        29.93F
STERLING       MOSUNNY   86  55  35 S12       29.93S
HOLYOKE        MOSUNNY   88  54  31 S6        29.92F
FORT MORGAN    MOSUNNY   81  49  33 SW6       29.99F
$$

COZ086-089-092>099-041900-
...SOUTHEAST COLORADO...

CITY           SKY/WX    TMP DP  RH WIND       PRES   REMARKS
PUEBLO         CLOUDY    81  50  33 CALM      30.01S
LA JUNTA       MOSUNNY   88  50  27 E3        29.97F
LAMAR          SUNNY     89  52  28 VRB6      29.94F
SPRINGFIELD      N/A     91  47  21 MISG      29.98F
$$




USA.gov is the U.S. government's official web portal to all federal, state and local government web resources and services.